sat.trackr.live / text

‹ back to catalog

STARLINK-35455

NORAD 66152 · 2025-240G

PAYLOAD ACTIVE UNKNOWN

§ Identity

Operator
Country
US
Launch date
2025-10-25
Launch site
AFWTR
Launch vehicle
Mass (kg)
RCS (m²)

Purposes: comms

External: N2YO · Heavens-Above · Gunter

§ Orbital elements

Epoch: 2026-05-25T01:42:23.274144Z

Period
93.85 min
Inclination
53.1582°
Eccentricity
0.0001025
Mean motion
15.34398988 rev/d
Perigee alt
462.0 km
Apogee alt
463.4 km
Semi-major
6,840.8 km
B*
5.8176e-4
RAAN
67.2645°
Arg perigee
83.3475°
Mean anomaly
276.7645°
Rev number
3,369

§ Raw data

STARLINK-354551 66152U 25240G   26145.07110271  .00019330  00000+0  58176-3 0  99952 66152  53.1582  67.2645 0001025  83.3475 276.7645 15.34398988 33690

JSON: /api/v1/satellites/66152 · /tle

For live sub-satellite position, see the globe view (requires WebGL).

§ Visibility from observer

Set your observer location to see the next 7 days of passes ≥ 10°. The values pass through the URL so the page stays shareable.

No JS? Fill the form by hand. The geolocation button needs JavaScript.